Find Starlink 11565

NORAD ID: 62912 Int'l Des: 2025-027 Owner: SPXS Country: US Constellation: starlink operational
又名: STARLINK-11565 [DTC] celestrak
LEOCIRCULAR

当前视图

正在加载3D地球...

About Starlink 11565

Starlink 11565 (NORAD 62912) is a starlink constellation satellite (v2 mini d2c) launched Feb 8, 2025 by SPXS of US. It operates in LEO, CIRCULAR orbit with a mass of 960.00 kg.

即将过境

Passes for default location (London). Set your location on the main map for personalized predictions.

高度历史

Loading altitude history...

两行轨道根数

1 62912U 25027F 26264.12476221 .00120437 00000-0 92804-3 0 9994
2 62912 42.9967 249.2272 0001268 178.0789 182.0083 15.70852993 93894
Epoch: Sep 21, 2026 • Age: 10 hours

当前状态

高度 356.6 km
远地点 / 近地点 N/A
速度 7.70 km/s
星下点 -8.58°S, 118.92°W
发射日期 Feb 8, 2025
运行时间 1.6 years
类型 internet

技术详情

分类 Payload
质量 960.00 kg
干质量 910.00 kg
长度 0.30 m
跨度 29.00 m
形状 ? Box + pan
制造商 SPXS
平台类型 Starlink V2MD
阶段状态 In Orbit
所有者/国家 SPXS/US

Most Searched